| time (UTC) | temp F | wind direction | speed MPH | gust MPH | rain 1hr in | rain 24hr in | rain mn in | humidity % | barometer mb |
| 20260510031601 | 79 | 96 | 7.0 | 12.0 | 0.00 | 0.15 | 0.15 | 87 | 1008.6 |
| 20260510030109 | 79 | 92 | 5.0 | 12.0 | 0.00 | 0.15 | 0.15 | 87 | 1008.5 |
| 20260510024600 | 79 | 93 | 8.0 | 12.0 | 0.00 | 0.15 | 0.15 | 87 | 1008.2 |
| 20260510023057 | 79 | 75 | 7.0 | 12.0 | 0.00 | 0.15 | 0.15 | 87 | 1008.1 |
| 20260510021603 | 79 | 76 | 7.0 | 14.0 | 0.00 | 0.15 | 0.15 | 87 | 1007.9 |
| 20260510020057 | 79 | 87 | 9.0 | 14.0 | 0.00 | 0.15 | 0.15 | 87 | 1007.7 |
| 20260510014601 | 79 | 78 | 9.0 | 15.0 | 0.00 | 0.15 | 0.15 | 86 | 1007.6 |
| 20260510013114 | 80 | 113 | 9.0 | 14.0 | 0.00 | 0.15 | 0.15 | 86 | 1007.4 |
| 20260510011555 | 80 | 92 | 10.0 | 14.0 | 0.00 | 0.15 | 0.15 | 86 | 1007.3 |
| 20260510010054 | 80 | 99 | 9.0 | 15.0 | 0.00 | 0.15 | 0.15 | 85 | 1007.5 |
| 20260510004553 | 80 | 71 | 7.0 | 17.0 | 0.00 | 0.15 | 0.15 | 85 | 1007.2 |
| 20260510003103 | 81 | 77 | 11.0 | 15.0 | 0.00 | 0.15 | 0.15 | 84 | 1007.2 |
| 20260510001552 | 81 | 74 | 12.0 | 19.0 | 0.00 | 0.15 | 0.15 | 83 | 1007.2 |
| 20260510000109 | 81 | 77 | 15.0 | 20.0 | 0.00 | 0.15 | 0.15 | 82 | 1007.2 |
| 20260509234550 | 81 | 65 | 16.0 | 20.0 | 0.00 | 0.15 | 0.15 | 82 | 1007.0 |
| 20260509233050 | 81 | 74 | 16.0 | 19.0 | 0.00 | 0.15 | 0.15 | 81 | 1006.8 |
| 20260509231553 | 81 | 61 | 15.0 | 18.0 | 0.00 | 0.15 | 0.15 | 81 | 1006.6 |
| 20260509230050 | 81 | 61 | 14.0 | 20.0 | 0.00 | 0.15 | 0.15 | 82 | 1006.8 |
| 20260509224548 | 81 | 50 | 13.0 | 17.0 | 0.00 | 0.15 | 0.15 | 81 | 1006.9 |
| 20260509223048 | 81 | 52 | 13.0 | 17.0 | 0.00 | 0.15 | 0.15 | 80 | 1006.8 |
| 20260509221554 | 81 | 53 | 12.0 | 15.0 | 0.00 | 0.15 | 0.15 | 80 | 1006.9 |
| 20260509220047 | 82 | 51 | 11.0 | 13.0 | 0.00 | 0.15 | 0.15 | 80 | 1007.1 |
| 20260509214558 | 81 | 69 | 10.0 | 14.0 | 0.00 | 0.15 | 0.15 | 79 | 1007.2 |
| 20260509213045 | 81 | 69 | 10.0 | 13.0 | 0.00 | 0.15 | 0.15 | 80 | 1007.3 |
| 20260509211547 | 82 | 67 | 11.0 | 14.0 | 0.00 | 0.15 | 0.15 | 79 | 1007.5 |
| 20260509210048 | 82 | 55 | 10.0 | 14.0 | 0.00 | 0.15 | 0.15 | 79 | 1007.6 |
| 20260509204542 | 82 | 67 | 11.0 | 15.0 | 0.00 | 0.15 | 0.15 | 78 | 1007.8 |
| 20260509203043 | 84 | 71 | 10.0 | 15.0 | 0.00 | 0.15 | 0.15 | 76 | 1007.8 |
| 20260509201543 | 85 | 69 | 12.0 | 15.0 | 0.00 | 0.15 | 0.15 | 73 | 1007.8 |
| 20260509200047 | 86 | 98 | 1.0 | 9.0 | 0.00 | 0.15 | 0.15 | 72 | 1007.8 |
| 20260509193032 | 85 | 110 | 1.0 | 9.0 | 0.00 | 0.15 | 0.15 | 72 | 1007.5 |
| 20260509191524 | 84 | 120 | 3.0 | 10.0 | 0.00 | 0.15 | 0.15 | 73 | 1007.6 |
| 20260509183025 | 84 | 96 | 3.0 | 9.0 | 0.00 | 0.15 | 0.15 | 77 | 1007.3 |
| 20260509181523 | 83 | 107 | 1.0 | 12.0 | 0.00 | 0.15 | 0.15 | 77 | 1007.3 |
| 20260509180018 | 81 | 132 | 3.0 | 12.0 | 0.00 | 0.15 | 0.15 | 79 | 1007.2 |
| 20260509174536 | 79 | 94 | 4.0 | 13.0 | 0.00 | 0.16 | 0.15 | 83 | 1007.3 |
| 20260509173016 | 77 | 97 | 4.0 | 12.0 | 0.00 | 0.16 | 0.15 | 86 | 1007.3 |
| 20260509171515 | 76 | 90 | 4.0 | 16.0 | 0.00 | 0.16 | 0.15 | 88 | 1007.8 |
| 20260509170014 | 75 | 76 | 9.0 | 18.0 | 0.03 | 0.16 | 0.15 | 89 | 1008.1 |
| 20260509164513 | 74 | 76 | 16.0 | 25.0 | 0.15 | 0.16 | 0.15 | 89 | 1008.5 |
| 20260509161512 | 73 | 70 | 15.0 | 34.0 | 0.15 | 0.16 | 0.15 | 90 | 1010.2 |
| 20260509160008 | 73 | 55 | 36.0 | 69.0 | 0.12 | 0.13 | 0.12 | 85 | 1009.7 |
| 20260509154506 | 80 | 236 | 5.0 | 15.0 | 0.00 | 0.01 | 0.00 | 77 | 1011.9 |
| 20260509151546 | 81 | 40 | 14.0 | 23.0 | 0.00 | 0.01 | 0.00 | 80 | 1009.9 |
| 20260509150044 | 80 | 46 | 19.0 | 23.0 | 0.00 | 0.01 | 0.00 | 80 | 1009.1 |
| 20260509144541 | 80 | 49 | 19.0 | 23.0 | 0.00 | 0.01 | 0.00 | 80 | 1008.7 |
| 20260509143043 | 80 | 52 | 18.0 | 25.0 | 0.00 | 0.01 | 0.00 | 81 | 1008.9 |
| 20260509141538 | 79 | 39 | 22.0 | 27.0 | 0.00 | 0.01 | 0.00 | 82 | 1008.8 |
| 20260509140045 | 79 | 28 | 20.0 | 26.0 | 0.00 | 0.01 | 0.00 | 85 | 1009.0 |
| 20260509134534 | 79 | 29 | 20.0 | 26.0 | 0.00 | 0.01 | 0.00 | 86 | 1009.3 |
| 20260509133031 | 79 | 34 | 17.0 | 26.0 | 0.00 | 0.01 | 0.00 | 87 | 1009.7 |
| 20260509131531 | 80 | 39 | 19.0 | 26.0 | 0.00 | 0.01 | 0.00 | 87 | 1009.4 |
| 20260509130027 | 80 | 35 | 18.0 | 24.0 | 0.00 | 0.01 | 0.00 | 87 | 1009.4 |
| 20260509124523 | 79 | 34 | 15.0 | 21.0 | 0.00 | 0.01 | 0.00 | 88 | 1009.2 |
| 20260509123020 | 79 | 31 | 7.0 | 13.0 | 0.00 | 0.01 | 0.00 | 89 | 1009.3 |
| 20260509121516 | 79 | 5 | 7.0 | 16.0 | 0.00 | 0.01 | 0.00 | 88 | 1009.0 |
| 20260509120014 | 79 | 13 | 10.0 | 14.0 | 0.00 | 0.01 | 0.00 | 88 | 1008.1 |
| 20260509114511 | 79 | 5 | 4.0 | 10.0 | 0.00 | 0.01 | 0.00 | 89 | 1007.9 |
| 20260509113008 | 79 | 32 | 6.0 | 9.0 | 0.00 | 0.01 | 0.00 | 89 | 1007.5 |
| 20260509111506 | 79 | 5 | 7.0 | 10.0 | 0.00 | 0.01 | 0.00 | 89 | 1007.2 |
| 20260509110005 | 79 | 41 | 5.0 | 9.0 | 0.00 | 0.01 | 0.00 | 89 | 1006.7 |
| 20260509104506 | 79 | 102 | 2.0 | 6.0 | 0.00 | 0.01 | 0.00 | 89 | 1005.9 |
| 20260509103002 | 79 | 114 | 0.0 | 0.0 | 0.00 | 0.01 | 0.00 | 89 | 1005.4 |
| 20260509101604 | 79 | 86 | 0.0 | 0.0 | 0.00 | 0.01 | 0.00 | 89 | 1005.2 |
| 20260509094559 | 78 | 142 | 0.0 | 5.0 | 0.00 | 0.01 | 0.00 | 88 | 1005.6 |
| 20260509093059 | 78 | 155 | 0.0 | 3.0 | 0.00 | 0.01 | 0.00 | 88 | 1005.7 |
| 20260509091600 | 78 | 171 | 1.0 | 5.0 | 0.00 | 0.01 | 0.00 | 88 | 1005.5 |
| 20260509090100 | 78 | 147 | 2.0 | 8.0 | 0.00 | 0.01 | 0.00 | 87 | 1005.7 |
| 20260509084557 | 78 | 157 | 6.0 | 11.0 | 0.00 | 0.08 | 0.00 | 87 | 1005.2 |
| 20260509083100 | 78 | 192 | 4.0 | 11.0 | 0.00 | 0.08 | 0.00 | 87 | 1005.5 |
| 20260509081554 | 78 | 148 | 5.0 | 14.0 | 0.00 | 0.08 | 0.00 | 87 | 1005.5 |
| 20260509080057 | 78 | 114 | 4.0 | 14.0 | 0.00 | 0.08 | 0.00 | 87 | 1005.5 |
| 20260509074603 | 79 | 167 | 5.0 | 16.0 | 0.00 | 0.09 | 0.00 | 86 | 1005.9 |
| 20260509073046 | 79 | 126 | 4.0 | 10.0 | 0.00 | 0.09 | 0.00 | 87 | 1006.0 |
| 20260509071546 | 79 | 115 | 2.0 | 8.0 | 0.00 | 0.09 | 0.00 | 86 | 1007.0 |
| 20260509070043 | 79 | 182 | 0.0 | 0.0 | 0.00 | 0.09 | 0.00 | 86 | 1007.1 |
| 20260509064541 | 79 | 182 | 0.0 | 5.0 | 0.00 | 0.09 | 0.00 | 86 | 1007.7 |
| 20260509063039 | 79 | 146 | 1.0 | 4.0 | 0.00 | 0.09 | 0.00 | 86 | 1007.5 |
| 20260509061538 | 79 | 167 | 0.0 | 5.0 | 0.00 | 0.09 | 0.00 | 85 | 1007.6 |
| 20260509060039 | 79 | 176 | 1.0 | 8.0 | 0.00 | 0.09 | 0.00 | 85 | 1007.5 |
| 20260509054535 | 79 | 146 | 2.0 | 6.0 | 0.00 | 0.09 | 0.00 | 85 | 1007.4 |
| 20260509053035 | 79 | 179 | 2.0 | 8.0 | 0.00 | 0.09 | 0.00 | 85 | 1007.5 |
| 20260509051537 | 79 | 196 | 2.0 | 9.0 | 0.00 | 0.09 | 0.00 | 85 | 1007.8 |
| 20260509050045 | 79 | 169 | 1.0 | 10.0 | 0.00 | 0.09 | 0.09 | 85 | 1007.5 |
| 20260509044531 | 79 | 173 | 7.0 | 17.0 | 0.00 | 0.09 | 0.09 | 85 | 1006.7 |
| 20260509043030 | 79 | 155 | 7.0 | 15.0 | 0.00 | 0.09 | 0.09 | 85 | 1006.2 |
| 20260509041529 | 80 | 160 | 7.0 | 13.0 | 0.00 | 0.09 | 0.09 | 85 | 1006.5 |
| 20260509040029 | 79 | 131 | 6.0 | 10.0 | 0.00 | 0.09 | 0.09 | 84 | 1007.4 |
| 20260509034529 | 80 | 186 | 4.0 | 12.0 | 0.00 | 0.09 | 0.09 | 84 | 1007.8 |
| 20260509033028 | 80 | 194 | 6.0 | 10.0 | 0.00 | 0.09 | 0.09 | 84 | 1007.6 |